AFL3457 UNKL-UNNT

Flight info

Callsign AFL3457
Flight time 1h 1m
Altitude 38000
Route UNKL/29 K0833F380 APRU2F APRUS B926 NATIR NATI1K UNNT/25
Aircraft A321/M-S/L

Departure

Time 2026-05-05 15:04
Airport Krasnoyarsk International Airport (UNKL)

Arrival

Time 2026-05-05 16:05
Airport Novosibirsk Tolmachevo Airport (UNNT)
Time Latitude Longitude Altitude Speed Heading
2026-05-05 14:29 56.18050 92.47591 948 ft 0 kts 20°
2026-05-05 14:55 56.18052 92.47593 948 ft 1 kts 20°
2026-05-05 14:55 56.18065 92.47602 948 ft 3 kts 20°
2026-05-05 14:55 56.18086 92.47630 948 ft 4 kts 55°
2026-05-05 14:56 56.18090 92.47697 948 ft 6 kts 101°
2026-05-05 14:56 56.18073 92.47783 948 ft 8 kts 111°
2026-05-05 14:56 56.18048 92.47890 948 ft 10 kts 111°
2026-05-05 14:56 56.18002 92.47979 948 ft 11 kts 173°
2026-05-05 14:57 56.17923 92.47935 948 ft 12 kts 202°
2026-05-05 14:57 56.17846 92.47962 948 ft 13 kts 120°
2026-05-05 14:57 56.17807 92.48121 948 ft 14 kts 113°
2026-05-05 14:57 56.17766 92.48292 948 ft 15 kts 113°
2026-05-05 14:58 56.17721 92.48474 948 ft 16 kts 114°
2026-05-05 14:58 56.17674 92.48669 948 ft 17 kts 112°
2026-05-05 14:58 56.17627 92.48869 948 ft 18 kts 112°
2026-05-05 14:58 56.17577 92.49079 948 ft 18 kts 112°
2026-05-05 14:59 56.17525 92.49296 948 ft 19 kts 112°
2026-05-05 14:59 56.17472 92.49521 948 ft 19 kts 112°
2026-05-05 14:59 56.17418 92.49747 948 ft 20 kts 112°
2026-05-05 14:59 56.17362 92.49982 948 ft 20 kts 112°
2026-05-05 15:00 56.17306 92.50216 948 ft 20 kts 113°
2026-05-05 15:00 56.17268 92.50375 948 ft 20 kts 112°
2026-05-05 15:00 56.17191 92.50696 948 ft 21 kts 112°
2026-05-05 15:00 56.17143 92.50899 948 ft 14 kts 112°
2026-05-05 15:01 56.17102 92.51070 948 ft 15 kts 112°
2026-05-05 15:01 56.17059 92.51254 948 ft 16 kts 112°
2026-05-05 15:01 56.17012 92.51447 948 ft 17 kts 112°
2026-05-05 15:01 56.16965 92.51647 948 ft 17 kts 112°
2026-05-05 15:02 56.16915 92.51857 948 ft 18 kts 112°
2026-05-05 15:02 56.16829 92.52026 948 ft 18 kts 150°
2026-05-05 15:02 56.16713 92.52085 948 ft 17 kts 173°
2026-05-05 15:02 56.16657 92.52005 948 ft 9 kts 268°
2026-05-05 15:03 56.16667 92.51937 948 ft 0 kts 290°
2026-05-05 15:03 56.16703 92.51778 948 ft 51 kts 292°
2026-05-05 15:03 56.16969 92.50662 948 ft 140 kts 293°
2026-05-05 15:03 56.17448 92.48698 1229 ft 189 kts 293°
2026-05-05 15:04 56.17964 92.46618 2308 ft 185 kts 294°
2026-05-05 15:04 56.18471 92.44591 3392 ft 184 kts 293°
2026-05-05 15:04 56.18982 92.42430 4240 ft 197 kts 292°
2026-05-05 15:04 56.19523 92.40092 5013 ft 215 kts 292°
2026-05-05 15:05 56.20792 92.34658 6634 ft 254 kts 292°
2026-05-05 15:05 56.21448 92.31819 7985 ft 248 kts 288°
2026-05-05 15:05 56.21679 92.28801 9091 ft 248 kts 262°
2026-05-05 15:06 56.21221 92.25855 10078 ft 252 kts 249°
2026-05-05 15:06 56.20584 92.22951 11010 ft 256 kts 248°
2026-05-05 15:06 56.19908 92.19962 11928 ft 260 kts 248°
2026-05-05 15:06 56.19229 92.16939 12751 ft 267 kts 248°
2026-05-05 15:07 56.18550 92.13883 13686 ft 268 kts 248°
2026-05-05 15:07 56.17871 92.10805 14549 ft 270 kts 248°
2026-05-05 15:07 56.17176 92.07647 15375 ft 274 kts 248°
2026-05-05 15:07 56.16482 92.04482 16164 ft 277 kts 248°
2026-05-05 15:08 56.15777 92.01269 16923 ft 280 kts 248°
2026-05-05 15:08 56.15058 91.97997 17655 ft 284 kts 248°
2026-05-05 15:08 56.14334 91.94703 18353 ft 287 kts 248°
2026-05-05 15:08 56.13603 91.91378 19022 ft 290 kts 248°
2026-05-05 15:09 56.12851 91.87968 19676 ft 293 kts 248°
2026-05-05 15:09 56.12106 91.84593 20301 ft 296 kts 248°
2026-05-05 15:09 56.11349 91.81165 20907 ft 299 kts 248°
2026-05-05 15:09 56.10574 91.77667 21495 ft 303 kts 248°
2026-05-05 15:10 56.09801 91.74179 22059 ft 306 kts 248°
2026-05-05 15:10 56.09016 91.70650 22588 ft 309 kts 248°
2026-05-05 15:10 56.08211 91.67029 23052 ft 312 kts 248°
2026-05-05 15:10 56.07404 91.63409 23510 ft 315 kts 248°
2026-05-05 15:11 56.06589 91.59759 23970 ft 318 kts 248°
2026-05-05 15:11 56.05771 91.56102 24419 ft 321 kts 248°
2026-05-05 15:11 56.04937 91.52378 24856 ft 325 kts 248°
2026-05-05 15:11 56.04095 91.48628 25281 ft 328 kts 248°
2026-05-05 15:12 56.03245 91.44848 25696 ft 331 kts 248°
2026-05-05 15:12 56.02386 91.41028 26104 ft 334 kts 248°
2026-05-05 15:12 56.01516 91.37174 26510 ft 338 kts 248°
2026-05-05 15:12 56.00623 91.33227 26920 ft 340 kts 248°
2026-05-05 15:13 55.99736 91.29303 27319 ft 343 kts 248°
2026-05-05 15:13 55.98879 91.25319 27705 ft 346 kts 251°
2026-05-05 15:13 55.98180 91.21250 28080 ft 349 kts 255°
2026-05-05 15:13 55.97632 91.17009 28456 ft 352 kts 258°
2026-05-05 15:14 55.97131 91.12716 28828 ft 354 kts 258°
2026-05-05 15:14 55.96638 91.08445 29185 ft 357 kts 258°
2026-05-05 15:14 55.96132 91.04096 29538 ft 360 kts 258°
2026-05-05 15:14 55.95618 90.99719 29885 ft 362 kts 258°
2026-05-05 15:15 55.95095 90.95288 30226 ft 365 kts 258°
2026-05-05 15:15 55.94570 90.90861 30555 ft 367 kts 258°
2026-05-05 15:15 55.94036 90.86383 30880 ft 370 kts 258°
2026-05-05 15:15 55.93499 90.81903 31196 ft 372 kts 258°
2026-05-05 15:16 55.92955 90.77376 31508 ft 375 kts 258°
2026-05-05 15:16 55.92408 90.72837 31811 ft 377 kts 258°
2026-05-05 15:16 55.91851 90.68237 32111 ft 380 kts 258°
2026-05-05 15:16 55.91288 90.63602 32404 ft 382 kts 258°
2026-05-05 15:17 55.90728 90.58999 32685 ft 384 kts 258°
2026-05-05 15:17 55.90154 90.54309 32965 ft 387 kts 258°
2026-05-05 15:17 55.89580 90.49670 33233 ft 389 kts 258°
2026-05-05 15:17 55.88986 90.44955 33497 ft 391 kts 258°
2026-05-05 15:18 55.88385 90.40185 33757 ft 394 kts 258°
2026-05-05 15:18 55.87785 90.35410 34011 ft 396 kts 258°
2026-05-05 15:18 55.87188 90.30644 34255 ft 398 kts 257°
2026-05-05 15:18 55.86585 90.25817 34494 ft 400 kts 257°
2026-05-05 15:19 55.85981 90.20991 34726 ft 402 kts 257°
2026-05-05 15:19 55.85373 90.16154 34951 ft 404 kts 257°
2026-05-05 15:19 55.84754 90.11240 35174 ft 406 kts 257°
2026-05-05 15:19 55.84139 90.06375 35386 ft 408 kts 257°
2026-05-05 15:20 55.83506 90.01389 35594 ft 410 kts 257°
2026-05-05 15:20 55.82874 89.96429 35794 ft 412 kts 257°
2026-05-05 15:20 55.82242 89.91486 35983 ft 413 kts 257°
2026-05-05 15:20 55.81598 89.86466 36168 ft 415 kts 257°
2026-05-05 15:21 55.80960 89.81507 36340 ft 417 kts 257°
2026-05-05 15:21 55.80307 89.76444 36506 ft 419 kts 257°
2026-05-05 15:21 55.79658 89.71438 36663 ft 420 kts 257°
2026-05-05 15:21 55.78994 89.66334 36817 ft 422 kts 257°
2026-05-05 15:22 55.78334 89.61276 36963 ft 424 kts 257°
2026-05-05 15:22 55.77663 89.56152 37105 ft 425 kts 257°
2026-05-05 15:22 55.76987 89.51008 37245 ft 427 kts 257°
2026-05-05 15:22 55.76318 89.45926 37375 ft 428 kts 257°
2026-05-05 15:23 55.75626 89.40691 37505 ft 430 kts 257°
2026-05-05 15:23 55.74946 89.35570 37627 ft 431 kts 257°
2026-05-05 15:23 55.74250 89.30335 37747 ft 433 kts 256°
2026-05-05 15:23 55.73561 89.25157 37862 ft 434 kts 256°
2026-05-05 15:24 55.72866 89.19961 37971 ft 435 kts 256°
2026-05-05 15:24 55.71451 89.09439 37986 ft 442 kts 256°
2026-05-05 15:25 55.70010 88.98837 37989 ft 442 kts 256°
2026-05-05 15:25 55.68558 88.88222 37989 ft 442 kts 256°
2026-05-05 15:26 55.67102 88.77621 37989 ft 442 kts 256°
2026-05-05 15:26 55.65647 88.67079 37989 ft 442 kts 256°
2026-05-05 15:27 55.64188 88.56577 37989 ft 442 kts 256°
2026-05-05 15:27 55.62703 88.45955 37989 ft 442 kts 256°
2026-05-05 15:28 55.61219 88.35406 37989 ft 442 kts 256°
2026-05-05 15:28 55.59730 88.24878 37989 ft 442 kts 256°
2026-05-05 15:29 55.58237 88.14391 37989 ft 442 kts 256°
2026-05-05 15:29 55.56723 88.03843 37989 ft 442 kts 256°
2026-05-05 15:30 55.55211 87.93381 37989 ft 442 kts 256°
2026-05-05 15:30 55.53680 87.82857 37989 ft 442 kts 256°
2026-05-05 15:31 55.52145 87.72368 37989 ft 442 kts 256°
2026-05-05 15:31 55.50599 87.61869 37989 ft 442 kts 256°
2026-05-05 15:32 55.49046 87.51430 37990 ft 442 kts 255°
2026-05-05 15:32 55.47469 87.40990 37989 ft 442 kts 255°
2026-05-05 15:33 55.45877 87.30489 37991 ft 446 kts 255°
2026-05-05 15:33 55.44286 87.20026 37989 ft 443 kts 255°
2026-05-05 15:34 55.42683 87.09557 37989 ft 442 kts 255°
2026-05-05 15:34 55.41071 86.99102 37989 ft 442 kts 255°
2026-05-05 15:35 55.39450 86.88662 37989 ft 442 kts 255°
2026-05-05 15:35 55.37833 86.78313 37989 ft 442 kts 255°
2026-05-05 15:36 55.36194 86.67881 37990 ft 442 kts 255°
2026-05-05 15:36 55.34554 86.57516 37990 ft 442 kts 255°
2026-05-05 15:37 55.32895 86.47084 37990 ft 442 kts 255°
2026-05-05 15:37 55.31244 86.36761 37606 ft 443 kts 255°
2026-05-05 15:37 55.30405 86.31537 36758 ft 450 kts 254°
2026-05-05 15:38 55.29544 86.26189 35897 ft 455 kts 254°
2026-05-05 15:38 55.28684 86.20871 35164 ft 456 kts 254°
2026-05-05 15:38 55.27867 86.15512 34451 ft 456 kts 256°
2026-05-05 15:38 55.27226 86.10162 33728 ft 457 kts 260°
2026-05-05 15:39 55.26759 86.04601 32962 ft 458 kts 263°
2026-05-05 15:39 55.26459 85.99071 32195 ft 459 kts 265°
2026-05-05 15:39 55.26194 85.93529 31625 ft 454 kts 265°
2026-05-05 15:39 55.25936 85.88070 31124 ft 449 kts 265°
2026-05-05 15:40 55.25675 85.82612 30580 ft 445 kts 265°
2026-05-05 15:40 55.25417 85.77279 30025 ft 441 kts 265°
2026-05-05 15:40 55.25156 85.71989 29410 ft 439 kts 265°
2026-05-05 15:40 55.24891 85.66668 28880 ft 434 kts 265°
2026-05-05 15:41 55.24630 85.61487 28396 ft 429 kts 265°
2026-05-05 15:41 55.24366 85.56287 27924 ft 423 kts 265°
2026-05-05 15:41 55.24105 85.51189 27464 ft 418 kts 265°
2026-05-05 15:41 55.23846 85.46174 27013 ft 412 kts 265°
2026-05-05 15:42 55.23588 85.41232 26568 ft 407 kts 265°
2026-05-05 15:42 55.23330 85.36329 26126 ft 402 kts 265°
2026-05-05 15:42 55.23074 85.31488 25687 ft 397 kts 264°
2026-05-05 15:42 55.22880 85.27836 25355 ft 394 kts 264°
2026-05-05 15:43 55.22626 85.23093 24920 ft 389 kts 264°
2026-05-05 15:43 55.22374 85.18411 24492 ft 385 kts 264°
2026-05-05 15:43 55.22121 85.13766 24064 ft 381 kts 264°
2026-05-05 15:43 55.21870 85.09167 23640 ft 378 kts 264°
2026-05-05 15:44 55.21618 85.04609 23218 ft 374 kts 264°
2026-05-05 15:44 55.21368 85.00092 22797 ft 371 kts 264°
2026-05-05 15:44 55.21119 84.95628 22380 ft 368 kts 264°
2026-05-05 15:44 55.20872 84.91237 21967 ft 365 kts 264°
2026-05-05 15:45 55.20621 84.86810 21551 ft 362 kts 264°
2026-05-05 15:45 55.20372 84.82456 21139 ft 360 kts 264°
2026-05-05 15:45 55.20124 84.78140 20731 ft 357 kts 264°
2026-05-05 15:45 55.19862 84.73806 20321 ft 355 kts 263°
2026-05-05 15:46 55.19471 84.69596 19918 ft 352 kts 258°
2026-05-05 15:46 55.18902 84.65468 19513 ft 350 kts 254°
2026-05-05 15:46 55.18212 84.61376 19053 ft 349 kts 253°
2026-05-05 15:46 55.17509 84.57316 18250 ft 358 kts 253°
2026-05-05 15:47 55.16770 84.53071 17328 ft 369 kts 253°
2026-05-05 15:47 55.16272 84.50205 16910 ft 369 kts 253°
2026-05-05 15:47 55.15302 84.44625 16578 ft 356 kts 253°
2026-05-05 15:47 55.14585 84.40499 16327 ft 347 kts 253°
2026-05-05 15:48 55.13895 84.36530 16088 ft 339 kts 253°
2026-05-05 15:48 55.13213 84.32615 15861 ft 336 kts 253°
2026-05-05 15:48 55.12538 84.28733 15640 ft 335 kts 253°
2026-05-05 15:48 55.11856 84.24830 15335 ft 334 kts 253°
2026-05-05 15:49 55.11184 84.20990 14983 ft 332 kts 252°
2026-05-05 15:49 55.10501 84.17104 14406 ft 336 kts 252°
2026-05-05 15:49 55.09809 84.13182 13550 ft 347 kts 252°
2026-05-05 15:49 55.09094 84.09142 12817 ft 352 kts 252°
2026-05-05 15:50 55.08406 84.05077 12468 ft 344 kts 255°
2026-05-05 15:50 55.07922 84.01073 12195 ft 335 kts 261°
2026-05-05 15:50 55.07630 83.97118 11950 ft 325 kts 264°
2026-05-05 15:50 55.07396 83.93254 11716 ft 317 kts 264°
2026-05-05 15:51 55.07194 83.89417 11489 ft 315 kts 269°
2026-05-05 15:51 55.07379 83.85625 11274 ft 314 kts 279°
2026-05-05 15:51 55.07765 83.81881 11064 ft 313 kts 281°
2026-05-05 15:51 55.08163 83.78178 10858 ft 312 kts 281°
2026-05-05 15:52 55.08545 83.74432 10651 ft 311 kts 280°
2026-05-05 15:52 55.08901 83.70744 10450 ft 310 kts 279°
2026-05-05 15:52 55.09246 83.67011 10238 ft 310 kts 279°
2026-05-05 15:52 55.09578 83.63335 9989 ft 305 kts 279°
2026-05-05 15:53 55.09893 83.59768 9945 ft 290 kts 279°
2026-05-05 15:53 55.10196 83.56313 9711 ft 283 kts 279°
2026-05-05 15:53 55.10490 83.52927 9388 ft 280 kts 279°
2026-05-05 15:53 55.10779 83.49588 9066 ft 278 kts 279°
2026-05-05 15:54 55.11064 83.46277 8746 ft 275 kts 279°
2026-05-05 15:54 55.11346 83.42985 8427 ft 273 kts 279°
2026-05-05 15:54 55.11623 83.39727 8111 ft 271 kts 279°
2026-05-05 15:54 55.11901 83.36465 7793 ft 269 kts 279°
2026-05-05 15:55 55.12174 83.33249 7482 ft 267 kts 278°
2026-05-05 15:55 55.12442 83.30055 7172 ft 265 kts 278°
2026-05-05 15:55 55.12704 83.26926 6868 ft 263 kts 278°
2026-05-05 15:55 55.12968 83.23771 6562 ft 261 kts 278°
2026-05-05 15:56 55.13229 83.20645 6258 ft 259 kts 278°
2026-05-05 15:56 55.13488 83.17541 5956 ft 258 kts 278°
2026-05-05 15:56 55.13746 83.14436 5654 ft 256 kts 278°
2026-05-05 15:56 55.14000 83.11362 5354 ft 255 kts 278°
2026-05-05 15:57 55.14251 83.08316 5057 ft 253 kts 278°
2026-05-05 15:57 55.14500 83.05286 4762 ft 253 kts 278°
2026-05-05 15:57 55.14752 83.02212 4463 ft 252 kts 278°
2026-05-05 15:57 55.15000 82.99182 4168 ft 251 kts 278°
2026-05-05 15:58 55.15241 82.96231 4005 ft 242 kts 278°
2026-05-05 15:58 55.15455 82.93408 3978 ft 228 kts 273°
2026-05-05 15:58 55.15133 82.90807 3886 ft 212 kts 240°
2026-05-05 15:58 55.14118 82.89099 3659 ft 201 kts 207°
2026-05-05 15:59 55.12814 82.88582 3465 ft 189 kts 177°
2026-05-05 15:59 55.11556 82.88997 3300 ft 178 kts 170°
2026-05-05 15:59 55.10361 82.89097 3114 ft 168 kts 184°
2026-05-05 15:59 55.09236 82.88916 2944 ft 158 kts 186°
2026-05-05 16:00 55.08174 82.88719 2797 ft 153 kts 186°
2026-05-05 16:00 55.07104 82.88518 2657 ft 152 kts 186°
2026-05-05 16:00 55.06049 82.88322 2515 ft 152 kts 186°
2026-05-05 16:00 55.05000 82.88131 2373 ft 152 kts 186°
2026-05-05 16:01 55.03945 82.87922 2129 ft 153 kts 192°
2026-05-05 16:01 55.03127 82.86916 1990 ft 149 kts 250°
2026-05-05 16:01 55.02928 82.85139 2026 ft 151 kts 264°
2026-05-05 16:01 55.02817 82.83303 1897 ft 150 kts 264°
2026-05-05 16:02 55.02696 82.81483 1816 ft 150 kts 263°
2026-05-05 16:02 55.02559 82.79694 1811 ft 151 kts 262°
2026-05-05 16:02 55.02409 82.77872 1541 ft 150 kts 262°
2026-05-05 16:02 55.02254 82.76077 1325 ft 149 kts 262°
2026-05-05 16:03 55.02097 82.74281 1117 ft 149 kts 262°
2026-05-05 16:03 55.01945 82.72574 859 ft 140 kts 262°
2026-05-05 16:03 55.01797 82.70921 634 ft 139 kts 261°
2026-05-05 16:03 55.01648 82.69248 492 ft 139 kts 262°
2026-05-05 16:04 55.01483 82.67582 367 ft 139 kts 261°
2026-05-05 16:04 55.01337 82.66020 353 ft 112 kts 261°
2026-05-05 16:04 55.01239 82.64896 352 ft 77 kts 261°
2026-05-05 16:04 55.01166 82.64117 353 ft 54 kts 261°
2026-05-05 16:05 55.01115 82.63569 353 ft 36 kts 261°
2026-05-05 16:05 55.01085 82.63222 353 ft 22 kts 262°
2026-05-05 16:05 55.01062 82.62961 353 ft 21 kts 262°
2026-05-05 16:05 55.01040 82.62707 353 ft 20 kts 262°
2026-05-05 16:06 55.01015 82.62464 353 ft 20 kts 248°
2026-05-05 16:06 55.00911 82.62345 353 ft 18 kts 171°
2026-05-05 16:06 55.00811 82.62409 353 ft 14 kts 126°
2026-05-05 16:06 55.00806 82.62572 353 ft 14 kts 81°
2026-05-05 16:07 55.00823 82.62750 353 ft 15 kts 81°
2026-05-05 16:07 55.00840 82.62946 353 ft 17 kts 82°
2026-05-05 16:07 55.00857 82.63157 353 ft 18 kts 82°
2026-05-05 16:07 55.00876 82.63380 353 ft 19 kts 82°
2026-05-05 16:08 55.00899 82.63615 353 ft 20 kts 81°
2026-05-05 16:08 55.00922 82.63860 353 ft 20 kts 81°
2026-05-05 16:08 55.00944 82.64111 353 ft 21 kts 81°
2026-05-05 16:08 55.00954 82.64359 353 ft 20 kts 101°
2026-05-05 16:09 55.00924 82.64592 353 ft 19 kts 103°
2026-05-05 16:09 55.00894 82.64822 353 ft 19 kts 103°
2026-05-05 16:09 55.00872 82.65046 353 ft 18 kts 87°
2026-05-05 16:09 55.00885 82.65262 355 ft 16 kts 87°
2026-05-05 16:10 55.00900 82.65460 356 ft 16 kts 81°
2026-05-05 16:10 55.00917 82.65640 358 ft 14 kts 81°
2026-05-05 16:10 55.00934 82.65816 358 ft 14 kts 81°
2026-05-05 16:10 55.00948 82.65977 358 ft 13 kts 82°
2026-05-05 16:11 55.00968 82.66132 357 ft 9 kts 71°
2026-05-05 16:11 55.00928 82.66290 358 ft 0 kts 169°